Погода в Старошешминске

Россия / Республика Татарстан     55°22′49″N   51°14′49″E
темп.,
°C
ветер,
м/с
пор.,
м/с
влажн.,
%
обл.,
%
осадки,
мм/ч
давл.,
гПа
погр.,
м
7 марта, вс
вс700:00−15юз229582 0.0 101223
03:00−16юз239784 0.1 101238
06:00−17зюз239899 0.1 101134
09:00−15юз349799 0.1 1011159
12:00−11юз359398 0.0 1010317
15:00−10ююз369399 0.0 1009379
18:00−13ю349560 0.0 100764
21:00−10ю5139380 0.0 1005484
8 марта, пн
пн800:00−9ю71494100 0.7 1001703
03:00−7ю81594100 1.8 997828
06:00−5ююз71395100 1.0 994763
09:00−7зюз598499 1.5 997399
12:00−5юз597999 0.0 999605
15:00−4юз51080100 0.0 9991205
18:00−5юз61293100 0.5 999738
21:00−9юз4693100 0.6 1000108
9 марта, вт
вт900:00−11юз469488 0.0 1000107
03:00−13зюз489789 0.0 1002139
06:00−17з469764 0.0 100487
09:00−13з469353 0.0 1006240
12:00−12з459170 0.0 1008372
15:00−11зсз469084 0.1 1009479
18:00−16зсз349595 0.0 100940
21:00−19сз349591 0.0 101153
10 марта, ср
ср1000:00−21зсз239741 0.0 101225
03:00−22зсз339752 0.0 101345
06:00−23сз349681 0.0 101471
09:00−20сз469489 0.0 1015312
12:00−19сз4690100 0.1 1017434
15:00−19сз578896 0.1 1017470
18:00−24сз349228 0.0 101954
21:00−27зсз339414 0.0 102124
11 марта, чт
чт1100:00−27з23950 0.0 102119
03:00−27з349822 0.0 102264
06:00−27зюз479979 0.0 1022113
09:00−22з699572 0.0 1023296
12:00−17з699399 0.0 1023425
15:00−14з589299 0.1 1024508
18:00−17зюз4697100 0.1 1025108
21:00−18зюз4698100 0.1 102799